New Bedford, MA

6:21 AM EDT on September 26, 2017 (GMT -0400)
New Bedford Regional

Weather History for KEWB - March, 2011

Change the Weather History Date:

Thursday, March 31, 2011

  Actual Average Record
Temperature  
Mean Temperature 40 °F -  
Max Temperature 48 °F 50 °F 78 °F (1998)
Min Temperature 33 °F 36 °F 21 °F (2008)
Degree Days  
Heating Degree Days 26    
Moisture  
Dew Point 32 °F    
Average Humidity 79    
Maximum Humidity 93    
Minimum Humidity 41    
Precipitation  
Precipitation 0.63 in - - ()
Sea Level Pressure  
Sea Level Pressure 29.85 in    
Wind  
Wind Speed 5 mph (NE)    
Max Wind Speed 14 mph    
Max Gust Speed 18 mph    
Visibility 6 miles    
Events Fog , Rain , Snow    
Averages and records for this station are not official NWS values.
T = Trace of Precipitation, MM = Missing Value Source: NWS Daily Summary

Daily Weather History Graph

Daily Weather History Graph

Search for Another Location

Airport or City:

Trip Planner

Search our weather history database for the weather conditions in past years. The results will help you decide how hot, cold, wet, or windy it might be!

Date:

Astronomy

Mar. 31, 2011 Rise Set
Actual Time 6:28 AM EDT 7:07 PM EDT
Civil Twilight 6:01 AM EDT 7:35 PM EDT
Nautical Twilight 5:27 AM EDT 8:09 PM EDT
Astronomical Twilight 4:53 AM EDT 8:43 PM EDT
Moon 4:49 AM EDT (3/31) 4:39 PM EDT (3/31)
Length of Visible Light 13h 34m
Length of Day
12h 38m
Waning Crescent, 8% of the Moon is Illuminated
Mar 31
Waning Crescent
Apr 3
New
Apr 11
First Quarter
Apr 17
Full
Apr 24
Last Quarter

Hourly Weather History & Observations

Time (EDT) Temp. Windchill Dew Point Humidity Pressure Visibility Wind Dir Wind Speed Gust Speed Precip Events Conditions
12:53 AM 39.0 °F 36.8 °F 32.0 °F 76% 30.01 in 10.0 mi South 3.5 mph - N/A   Partly Cloudy
1:53 AM 39.0 °F - 32.0 °F 76% 29.99 in 10.0 mi Calm Calm - N/A   Overcast
2:53 AM 37.0 °F - 32.0 °F 82% 29.96 in 10.0 mi Calm Calm - N/A   Mostly Cloudy
3:53 AM 37.0 °F - 33.1 °F 86% 29.94 in 10.0 mi Calm Calm - N/A   Overcast
4:53 AM 37.0 °F - 32.0 °F 82% 29.94 in 10.0 mi Calm Calm - N/A   Overcast
5:53 AM 39.9 °F - 34.0 °F 79% 29.93 in 10.0 mi Calm Calm - N/A   Overcast
6:53 AM 39.0 °F 36.8 °F 34.0 °F 82% 29.94 in 10.0 mi NNE 3.5 mph - N/A   Overcast
7:53 AM 41.0 °F 38.0 °F 35.1 °F 79% 29.92 in 10.0 mi ENE 4.6 mph - N/A   Overcast
8:53 AM 43.0 °F 40.3 °F 32.0 °F 65% 29.91 in 10.0 mi East 4.6 mph - N/A   Overcast
9:53 AM 44.1 °F 40.1 °F 28.0 °F 53% 29.91 in 10.0 mi East 6.9 mph - N/A   Overcast
10:53 AM 46.0 °F 41.0 °F 25.0 °F 44% 29.90 in 10.0 mi ENE 10.4 mph 18.4 mph N/A   Mostly Cloudy
11:53 AM 46.9 °F - 24.1 °F 41% 29.90 in 10.0 mi ENE 10.4 mph - N/A   Overcast
12:53 PM 46.0 °F 40.6 °F 26.1 °F 46% 29.89 in 10.0 mi ENE 11.5 mph - N/A   Overcast
1:53 PM 46.9 °F - 25.0 °F 42% 29.86 in 10.0 mi East 13.8 mph 18.4 mph N/A   Overcast
2:53 PM 45.0 °F 39.7 °F 30.0 °F 56% 29.85 in 10.0 mi NE 10.4 mph - 0.00 in Rain Light Rain
3:10 PM 42.8 °F 38.0 °F 30.2 °F 61% 29.85 in 10.0 mi ENE 8.1 mph - 0.00 in Rain Light Rain
3:53 PM 42.1 °F 36.1 °F 34.0 °F 73% 29.85 in 9.0 mi NE 10.4 mph - 0.01 in Rain Light Rain
4:30 PM 39.2 °F 32.0 °F 33.8 °F 81% 29.84 in 5.0 mi NE 11.5 mph - 0.02 in Rain Light Rain
4:45 PM 37.4 °F 30.8 °F 33.8 °F 87% 29.85 in 6.0 mi NE 9.2 mph - 0.04 in Rain Light Rain
4:53 PM 37.9 °F 31.5 °F 33.1 °F 83% 29.85 in 5.0 mi NE 9.2 mph - 0.05 in Rain Rain
5:02 PM 37.4 °F 32.1 °F 33.8 °F 87% 29.84 in 4.0 mi NE 6.9 mph - 0.01 in Rain Rain
5:15 PM 37.4 °F 31.4 °F 33.8 °F 87% 29.84 in 3.0 mi NE 8.1 mph - 0.04 in Snow Light Snow
5:53 PM 35.1 °F 31.0 °F 32.0 °F 89% 29.83 in 2.0 mi NE 4.6 mph - 0.10 in Snow Light Snow
6:18 PM 35.6 °F 30.7 °F 32.0 °F 87% 29.83 in 1.0 mi NE 5.8 mph - 0.04 in Snow Light Snow
6:26 PM 35.6 °F 31.7 °F 32.0 °F 87% 29.83 in 1.0 mi NE 4.6 mph - 0.05 in Snow Light Snow
6:53 PM 34.0 °F 29.8 °F 32.0 °F 92% 29.83 in 1.0 mi NNE 4.6 mph - 0.09 in Snow Light Snow
7:00 PM 33.8 °F 28.6 °F 32.0 °F 93% 29.83 in 0.5 mi NE 5.8 mph - 0.02 in Fog , Snow Snow
7:13 PM 33.8 °F 26.4 °F 32.0 °F 93% 29.82 in 1.0 mi NE 9.2 mph - 0.04 in Snow Light Snow
7:53 PM 34.0 °F 27.2 °F 32.0 °F 92% 29.80 in 1.0 mi NE 8.1 mph - 0.12 in Snow Light Snow
8:14 PM 33.8 °F 27.0 °F 32.0 °F 93% 29.79 in 1.0 mi NE 8.1 mph - 0.05 in Snow Light Snow
8:32 PM 33.8 °F 27.0 °F 32.0 °F 93% 29.79 in 3.0 mi NE 8.1 mph - 0.08 in Snow Light Snow
8:53 PM 35.1 °F 27.9 °F 32.0 °F 89% 29.79 in 9.0 mi NE 9.2 mph - 0.09 in Snow Light Snow
9:53 PM 35.1 °F 29.3 °F 32.0 °F 89% 29.78 in 3.0 mi NNE 6.9 mph - 0.07 in Snow Light Snow
10:02 PM 35.6 °F 30.7 °F 32.0 °F 87% 29.78 in 2.0 mi NNE 5.8 mph - 0.01 in Snow Light Snow
10:13 PM 35.6 °F 29.9 °F 32.0 °F 87% 29.77 in 5.0 mi NNE 6.9 mph - 0.02 in Rain Light Rain
10:53 PM 35.1 °F 30.1 °F 32.0 °F 89% 29.75 in 5.0 mi NNE 5.8 mph - 0.06 in Rain Light Rain
11:26 PM 35.6 °F 27.5 °F 32.0 °F 87% 29.73 in 6.0 mi NE 11.5 mph - 0.02 in Rain Light Rain
11:53 PM 35.1 °F 26.9 °F 32.0 °F 89% 29.71 in 5.0 mi NE 11.5 mph - 0.04 in Rain Rain